Regional Weather Roundup
Issued by NWS

Home | Current Version | Previous Version | Text Only | Print | Product List | Glossary Off
Versions: 1 2 3 4 5 6 7 8 9 10 11 12 13 14 15 16 17 18 19 20 21 22 23 24 25 26 27 28 29 30 31 32 33 34 35 36 37 38 39 40 41 42 43 44 45 46 47 48 49 50

000
ASUS43 KIND 220809
RWRIN

WEATHER ROUNDUP FOR INDIANA
NATIONAL WEATHER SERVICE INDIANAPOLIS IN
300 AM EST THU FEB 22 2018

NOTE: "FAIR" INDICATES FEW OR NO CLOUDS BELOW 12,000 FEET WITH NO
SIGNIFICANT WEATHER AND/OR OBSTRUCTIONS TO VISIBILITY.

* - STATION DOES NOT REPORT WEATHER SUCH AS PRECIPITATION OR FOG.

+ - STATION NOT QUALITY CONTROLLED BY THE NATIONAL WEATHER SERVICE.
    USE DATA WITH CAUTION...ESPECIALLY DEWPOINT AND RELATIVE
    HUMIDITY OBSERVATIONS.

INZ001>003-010>013-019-020-220900-
NORTHWEST INDIANA

CITY           SKY/WX    TMP DP  RH WIND       PRES   REMARKS
GARY /AIRPORT/ FAIR      33  28  81 NE16      30.57F WCI  22
LA PORTE +     MOCLDY    30  27  88 NE8       30.54S WCI  23
MICHIGAN CITY+ FAIR      30  28  93 NE5       30.56F WCI  25
MONTICELLO +   CLOUDY    35  32  90 NE8       30.47S WCI  28
RENSSELAER +   MOCLDY    32  28  86 NE14      30.49F WCI  22
VALPARAISO     CLOUDY    32  27  81 NE9       30.53F WCI  24

$$

LMZ046-743>745-220900-
SOUTHERN LAKE MICHIGAN

STATION/POSITION TIME  TEMP    WIND        PRES    WAVE
                       AIR SEA DIR/SP/G            HT
                 (UTC) (F)     (DEG/KT/KT) (MB)    (FT)
BURNS HARBOR     0740   31      50/ 15/ 18 1034.5F
MICHIGAN CITY    0740   30      30/ 18/ 18   N/A

$$

INZ004-005-014>016-021>024-220900-
NORTH CENTRAL INDIANA

CITY           SKY/WX    TMP DP  RH WIND       PRES   REMARKS
GOSHEN         CLOUDY    34  30  85 NE10      30.52F WCI  26
LOGANSPORT +   LGT RAIN  34  32  93 NE6       30.49S WCI  29
PERU/GRISSOM   DRIZZLE   37  37 100 E18       30.47S WCI  27
ROCHESTER +    CLOUDY    36  34  93 NE9       30.50F WCI  29
SOUTH BEND     FAIR      30  27  88 NE7       30.54F WCI  23
WARSAW +       CLOUDY    34  32  93 NE7       30.51F WCI  28

$$

INZ006>009-017-018-025>027-220900-
NORTHEAST INDIANA

CITY           SKY/WX    TMP DP  RH WIND       PRES   REMARKS
AUBURN +       CLOUDY    34  32  93 E13       30.54F WCI  25
FORT WAYNE     CLOUDY    36  32  85 E16       30.51F WCI  26
HUNTINGTON +   CLOUDY    35  32  90 E9G18     30.49F WCI  28
KENDALLVILLE + CLOUDY    34  32  93 E9        30.53S WCI  26

$$

INZ028-029-035-036-043>045-051>053-220900-
WEST CENTRAL INDIANA

CITY           SKY/WX    TMP DP  RH WIND       PRES   REMARKS
CRAWFORDSVL +  CLOUDY    35  35 100 E13         N/A  WCI  26
GREENCASTLE +  CLOUDY    37  36  93 E13       30.40F WCI  29
LAFAYETTE      LGT RAIN  35  34  96 NE14      30.45F WCI  26
TERRE HAUTE    LGT RAIN  39  38  96 E10       30.38F WCI  32

$$

INZ030>032-037>040-046>048-054>057-064-065-220900-
CENTRAL INDIANA

CITY           SKY/WX    TMP DP  RH WIND       PRES   REMARKS
FISHERS *+     CLOUDY    36  36 100 E9        30.43F WCI  29
GREENWOOD *+   CLOUDY   N/A N/A N/A E8G17     30.43F
INDIANAPOLIS   LGT RAIN  38  36  92 E15       30.42F WCI  29
-EAGLE CREEK   LGT RAIN  38  35  89 E12       30.42F WCI  30
MARION +       CLOUDY    35  32  88 E14G23    30.46F WCI  26
MT COMFORT *+  CLOUDY    36  36 100 E15       30.44F WCI  26
SHELBYVILLE    LGT RAIN  39  35  86 E18       30.41F WCI  30
ZIONSVILLE +   LGT RAIN  36  35  96 E16G22    30.43F WCI  26

$$

INZ033-034-041-042-049-050-058-059-220900-
EAST CENTRAL INDIANA

CITY           SKY/WX    TMP DP  RH WIND       PRES   REMARKS
MUNCIE         LGT RAIN  37  34  89 E15       30.46F WCI  28
RICHMOND +     LGT SNOW  34  34 100 E21       30.45F WCI  22

$$

INZ060-061-067>069-081>083-085>088-220900-
SOUTHWEST INDIANA

CITY           SKY/WX    TMP DP  RH WIND       PRES   REMARKS
EVANSVILLE     RAIN      41  41 100 NE12      30.33F
HUNTINGBURG +  RAIN      42  40  92 NE10      30.33F
WASHINGTON +   DRIZZLE   40  39  94 NE10      30.35F WCI  34

$$

INZ062-063-066-070>080-084-089>092-220900-
SOUTH CENTRAL AND SOUTHEAST INDIANA

CITY           SKY/WX    TMP DP  RH WIND       PRES   REMARKS
BATESVILLE +   CLOUDY    37  37 100 MISG      30.42F
BEDFORD +      RAIN      41  37  87 NE9G16    30.36F
BLOOMINGTON    LGT RAIN  40  38  93 NE12G20   30.37F WCI  33
FRENCH LICK *+ CLOUDY    39 N/A N/A E16G22    30.33F WCI  30
MADISON *+     CLOUDY    41  37  87 NE16      30.37F
NORTH VERNON + DRIZZLE   37  36  93 NE14G20   30.40F WCI  29
SEYMOUR +      DRIZZLE   43  39  87 NE14      30.39

$$




USA.gov is the U.S. government's official web portal to all federal, state and local government web resources and services.